Weather History for KSUX - January, 2014

Change the Weather History Date:

Sunday, January 26, 2014

  Actual Average Record
Temperature  
Mean Temperature 28 °F 21 °F  
Max Temperature 53 °F 31 °F 71 °F (2002)
Min Temperature 2 °F 11 °F -23 °F (1950)
Degree Days  
Heating Degree Days 37 44  
Month to date heating degree days 1181 1166  
Since 1 July heating degree days 4055 3958  
Cooling Degree Days 0 0  
Month to date cooling degree days 0 0  
Year to date cooling degree days 0 0  
Moisture  
Dew Point 15 °F    
Average Humidity 55    
Maximum Humidity 67    
Minimum Humidity 42    
Precipitation  
Precipitation T in 0.02 in 0.54 in (1918)
Month to date precipitation 0.18 0.51  
Year to date precipitation 0.18 0.51  
Snow  
Snow T in 0.20 in 7.00 in (1918)
Month to date snowfall 1.9 5.5  
Since 1 July snowfall 5.1 18.7  
Snow Depth 0.00 in    
Sea Level Pressure  
Sea Level Pressure 29.82 in    
Wind  
Wind Speed 27 mph (NW)    
Max Wind Speed 53 mph    
Max Gust Speed 61 mph    
Visibility 9 miles    
Events Rain , Snow    
T = Trace of Precipitation, MM = Missing Value Source: NWS Daily Summary

Daily Weather History Graph

Daily Weather History Graph

Search for Another Location

Airport or City:

Trip Planner

Search our weather history database for the weather conditions in past years. The results will help you decide how hot, cold, wet, or windy it might be!

Date:

Astronomy

Jan. 26, 2014 Rise Set
Actual Time 7:44 AM CST 5:31 PM CST
Civil Twilight 7:14 AM CST 6:02 PM CST
Nautical Twilight 6:40 AM CST 6:36 PM CST
Astronomical Twilight 6:07 AM CST 7:09 PM CST
Moon 3:23 AM CST (1/26) 1:21 PM CST (1/26)
Length of Visible Light 10h 47m
Length of Day
9h 47m
Waning Crescent, 23% of the Moon is Illuminated
Jan 26
Waning Crescent
Jan 30
New
Feb 6
First Quarter
Feb 14
Full
Feb 22
Last Quarter

Hourly Weather History & Observations

Time (CST) Temp. Windchill Dew Point Humidity Pressure Visibility Wind Dir Wind Speed Gust Speed Precip Events Conditions
12:52 AM 53.1 °F - 32.0 °F 45% 29.44 in 10.0 mi NW 33.4 mph 46.0 mph 0.00 in Rain Light Rain
1:52 AM 50.0 °F - 33.1 °F 52% 29.47 in 10.0 mi NW 33.4 mph 43.7 mph 0.00 in Rain Light Rain
2:52 AM 46.9 °F - 33.1 °F 59% 29.51 in 10.0 mi NW 36.8 mph 44.9 mph 0.00 in Rain Light Rain
3:52 AM 44.1 °F 34.0 °F 28.9 °F 55% 29.55 in 10.0 mi NNW 29.9 mph 46.0 mph 0.00 in Rain Light Rain
4:52 AM 44.1 °F 35.9 °F 28.0 °F 53% 29.58 in 10.0 mi NW 19.6 mph 33.4 mph 0.00 in   Overcast
5:52 AM 43.0 °F 35.4 °F 28.9 °F 58% 29.58 in 10.0 mi NW 16.1 mph 29.9 mph N/A   Overcast
6:52 AM 43.0 °F 34.2 °F 30.0 °F 60% 29.59 in 10.0 mi NW 20.7 mph 27.6 mph N/A   Overcast
7:52 AM 41.0 °F 32.5 °F 28.0 °F 60% 29.60 in 10.0 mi NNW 17.3 mph 28.8 mph 0.00 in   Overcast
8:52 AM 41.0 °F 35.8 °F 28.0 °F 60% 29.60 in 10.0 mi NW 8.1 mph - N/A   Overcast
9:52 AM 45.0 °F 40.1 °F 28.0 °F 52% 29.57 in 10.0 mi West 9.2 mph - N/A   Partly Cloudy
10:52 AM 46.9 °F - 28.9 °F 50% 29.55 in 10.0 mi West 15.0 mph 25.3 mph N/A   Clear
11:52 AM 50.0 °F - 28.9 °F 44% 29.51 in 10.0 mi WNW 24.2 mph 34.5 mph N/A   Clear
12:52 PM 50.0 °F - 27.0 °F 41% 29.49 in 10.0 mi NW 35.7 mph 47.2 mph 0.00 in Rain Light Rain
1:52 PM 39.9 °F 27.3 °F 26.1 °F 58% - 10.0 mi NNW 36.8 mph 49.5 mph 0.00 in Rain Light Rain
2:52 PM 35.1 °F 21.4 °F 19.0 °F 52% - 10.0 mi NNW 32.2 mph 41.4 mph 0.00 in   Overcast
3:52 PM 30.0 °F 14.2 °F 14.0 °F 51% - 6.0 mi NW 33.4 mph 56.4 mph 0.00 in Snow Light Snow
3:57 PM 28.0 °F 10.9 °F 19.9 °F 72% - 1.5 mi NNW 36.8 mph 56.4 mph 0.00 in Snow Light Snow
4:05 PM 26.1 °F 8.6 °F 21.0 °F 81% - 0.5 mi NNW 34.5 mph 46.0 mph 0.00 in Snow Snow
4:13 PM 25.0 °F 6.6 °F 17.1 °F 72% - 2.0 mi NNW 36.8 mph 48.3 mph 0.00 in Snow Light Snow
4:21 PM 25.0 °F 7.3 °F 15.1 °F 66% - 9.0 mi NNW 33.4 mph 46.0 mph 0.00 in Snow Light Snow
4:35 PM 24.1 °F 6.6 °F 12.9 °F 62% - 9.0 mi NW 31.1 mph 49.5 mph 0.00 in Snow Light Snow
4:52 PM 19.9 °F -1.5 °F 10.9 °F 68% - 8.0 mi NNW 42.6 mph 54.1 mph 0.00 in Snow Light Snow
5:00 PM 19.0 °F -2.3 °F 8.1 °F 62% - 9.0 mi NNW 40.3 mph 57.5 mph 0.00 in Snow Light Snow
5:15 PM 18.0 °F -2.6 °F 6.1 °F 60% 29.94 in 9.0 mi NNW 34.5 mph 49.5 mph 0.00 in Snow Light Snow
5:52 PM 16.0 °F -5.0 °F 1.0 °F 52% 30.01 in 9.0 mi NNW 33.4 mph 46.0 mph 0.00 in Snow Light Snow
6:52 PM 12.9 °F -9.2 °F 1.0 °F 59% 30.11 in 9.0 mi NW 33.4 mph 43.7 mph 0.00 in Snow Light Snow
7:17 PM 10.9 °F -11.6 °F 1.9 °F 67% 30.09 in 8.0 mi North 32.2 mph 41.4 mph 0.00 in Snow Light Snow
7:42 PM 10.9 °F -12.2 °F -0.9 °F 59% 30.12 in 10.0 mi North 34.5 mph 41.4 mph 0.00 in   Mostly Cloudy
7:52 PM 10.0 °F -13.7 °F -2.9 °F 56% 30.17 in 10.0 mi NNW 35.7 mph 44.9 mph 0.00 in   Mostly Cloudy
8:52 PM 7.0 °F -17.3 °F -9.9 °F 46% 30.23 in 9.0 mi NNW 33.4 mph 50.6 mph 0.00 in Snow Light Snow
9:52 PM 5.0 °F -16.2 °F -9.9 °F 50% 30.29 in 10.0 mi NNW 21.9 mph 38.0 mph 0.00 in   Clear
10:52 PM 3.9 °F -20.1 °F -13.0 °F 46% 30.33 in 9.0 mi NNW 28.8 mph 41.4 mph 0.00 in Snow Light Snow
11:52 PM 1.9 °F -20.7 °F -11.0 °F 55% 30.36 in 10.0 mi NNW 23.0 mph 29.9 mph 0.00 in   Clear